Weather History for Saginaw Browne, MI

Change the Weather History Date:

Saturday, July 20, 2013

  Actual Average (KMBS) Record (KMBS)
Temperature  
Mean Temperature 75 °F 71 °F  
Max Temperature 86 °F 82 °F 94 °F (1998)
Min Temperature 62 °F 60 °F 48 °F (2000)
Degree Days  
Heating Degree Days 0    
Month to date heating degree days  
Since 1 June heating degree days  
Since 1 July heating degree days  
Cooling Degree Days 10    
Month to date cooling degree days  
Year to date cooling degree days  
Since 1 June cooling degree days  
Growing Degree Days 25 (Base 50)    
Moisture  
Dew Point 62 °F    
Average Humidity 69    
Maximum Humidity 100    
Minimum Humidity 33    
Precipitation  
Precipitation 0.00 in 0.09 in 0.66 in (2008)
Month to date precipitation 1.63  
Year to date precipitation 16.26  
Snow  
Snow 0.00 in - - ()
Month to date snowfall  
Since 1 June snowfall  
Since 1 July snowfall  
Snow Depth -    
Sea Level Pressure  
Sea Level Pressure 29.84 in    
Wind  
Wind Speed 5 mph (NNW)    
Max Wind Speed 18 mph    
Max Gust Speed 32 mph    
Visibility 10 miles    
Events Rain    
T = Trace of Precipitation, MM = Missing Value Source: NWS Daily Summary

Daily Weather History Graph

Daily Weather History Graph

Search for Another Location

Airport:

Trip Planner

Search our weather history database for the weather conditions in past years. The results will help you decide how hot, cold, wet, or windy it might be!

Date:

Astronomy

Jul. 20, 2013 Rise Set
Actual Time 6:13 AM EDT 9:09 PM EDT
Civil Twilight 5:39 AM EDT 9:43 PM EDT
Nautical Twilight 4:56 AM EDT 10:26 PM EDT
Astronomical Twilight 4:05 AM EDT 11:17 PM EDT
Moon 7:11 PM EDT (7/20) 3:52 AM EDT (7/20)
Length of Visible Light 16h 04m
Length of Day
14h 56m
Waxing Gibbous, 93% of the Moon is Illuminated
Jul 20
Waxing Gibbous
Jul 22
Full
Jul 29
Last Quarter
Aug 6
New
Aug 14
First Quarter

Hourly Weather History & Observations

Time (EDT) Temp. Heat Index Dew Point Humidity Pressure Visibility Wind Dir Wind Speed Gust Speed Precip Events Conditions
12:12 AM 77.0 °F - 66.2 °F 69% 29.73 in 10.0 mi NW 6.9 mph - N/A   Clear
12:32 AM 75.2 °F - 66.2 °F 73% 29.74 in 10.0 mi NNW 6.9 mph - N/A   Scattered Clouds
12:52 AM 73.4 °F - 68.0 °F 83% 29.74 in 10.0 mi North 5.8 mph - N/A   Scattered Clouds
1:13 AM 73.4 °F - 68.0 °F 83% 29.75 in 10.0 mi NNW 3.5 mph - N/A   Clear
1:33 AM 71.6 °F - 68.0 °F 88% 29.76 in 10.0 mi Calm Calm - N/A   Scattered Clouds
1:53 AM 73.4 °F - 69.8 °F 88% 29.77 in 10.0 mi ENE 8.1 mph - N/A   Mostly Cloudy
2:13 AM 73.4 °F - 68.0 °F 83% 29.77 in 10.0 mi ENE 8.1 mph - N/A   Overcast
2:33 AM 71.6 °F - 68.0 °F 88% 29.76 in 10.0 mi East 6.9 mph - N/A   Overcast
2:53 AM 71.6 °F - 68.0 °F 88% 29.77 in 10.0 mi East 5.8 mph - N/A   Overcast
3:13 AM 71.6 °F - 68.0 °F 88% 29.77 in 10.0 mi East 6.9 mph - N/A   Overcast
3:33 AM 71.6 °F - 68.0 °F 88% 29.77 in 10.0 mi East 4.6 mph - N/A   Overcast
3:54 AM 71.6 °F - 68.0 °F 88% 29.78 in 10.0 mi ENE 4.6 mph - N/A   Overcast
4:14 AM 71.6 °F - 68.0 °F 88% 29.78 in 10.0 mi NE 3.5 mph - N/A   Mostly Cloudy
4:34 AM 69.8 °F - 68.0 °F 94% 29.77 in 10.0 mi North 3.5 mph - N/A   Mostly Cloudy
4:54 AM 69.8 °F - 68.0 °F 94% 29.78 in 10.0 mi Calm Calm - N/A   Mostly Cloudy
5:14 AM 69.8 °F - 68.0 °F 94% 29.78 in 10.0 mi Calm Calm - N/A   Scattered Clouds
5:34 AM 68.0 °F - 68.0 °F 100% 29.79 in 10.0 mi Calm Calm - N/A   Scattered Clouds
5:49 AM 68.0 °F - 68.0 °F 100% 29.79 in 10.0 mi Calm Calm - N/A   Scattered Clouds
6:09 AM 68.0 °F - 68.0 °F 100% 29.79 in 10.0 mi Calm Calm - N/A   Clear
6:30 AM 66.2 °F - 66.2 °F 100% 29.80 in 10.0 mi Calm Calm - N/A   Clear
6:50 AM 66.2 °F - 64.4 °F 94% 29.81 in 10.0 mi Calm Calm - N/A   Clear
7:10 AM 68.0 °F - 68.0 °F 100% 29.82 in 10.0 mi Calm Calm - N/A   Clear
7:30 AM 69.8 °F - 68.0 °F 94% 29.83 in 10.0 mi Calm Calm - N/A   Scattered Clouds
7:50 AM 69.8 °F - 68.0 °F 94% 29.84 in 10.0 mi Calm Calm - N/A   Scattered Clouds
8:10 AM 71.6 °F - 66.2 °F 83% 29.84 in 10.0 mi South 5.8 mph - N/A   Scattered Clouds
8:30 AM 73.4 °F - 64.4 °F 73% 29.84 in 10.0 mi South 4.6 mph - N/A   Clear
8:50 AM 73.4 °F - 62.6 °F 69% 29.84 in 10.0 mi South 4.6 mph - N/A   Clear
9:10 AM 75.2 °F - 64.4 °F 69% 29.85 in 10.0 mi Calm Calm - N/A   Clear
9:30 AM 77.0 °F - 64.4 °F 65% 29.85 in 10.0 mi Calm Calm - N/A   Clear
9:50 AM 77.0 °F - 62.6 °F 61% 29.85 in 10.0 mi Calm Calm - N/A   Clear
10:10 AM 78.8 °F - 62.6 °F 57% 29.85 in 10.0 mi SSW 3.5 mph - N/A   Clear
10:30 AM 78.8 °F - 60.8 °F 54% 29.85 in 10.0 mi West 4.6 mph - N/A   Clear
10:51 AM 78.8 °F - 57.2 °F 47% 29.86 in 10.0 mi Calm Calm - N/A   Clear
11:11 AM 80.6 °F 80.3 °F 53.6 °F 39% 29.86 in 10.0 mi West 4.6 mph - N/A   Clear
11:31 AM 80.6 °F 80.5 °F 55.4 °F 42% 29.86 in 10.0 mi WSW 4.6 mph - N/A   Clear
11:51 AM 80.6 °F 80.3 °F 53.6 °F 39% 29.86 in 10.0 mi Calm Calm - N/A   Clear
12:11 PM 80.6 °F 80.3 °F 53.6 °F 39% 29.86 in 10.0 mi West 5.8 mph - N/A   Clear
12:31 PM 82.4 °F 81.7 °F 55.4 °F 39% 29.86 in 10.0 mi West 5.8 mph - N/A   Clear
12:51 PM 82.4 °F 81.4 °F 53.6 °F 37% 29.85 in 10.0 mi WNW 8.1 mph - N/A   Clear
1:11 PM 84.2 °F 82.8 °F 53.6 °F 35% 29.85 in 10.0 mi WNW 9.2 mph - N/A   Clear
1:32 PM 84.2 °F 82.8 °F 53.6 °F 35% 29.85 in 10.0 mi WNW 5.8 mph - N/A   Clear
1:52 PM 84.2 °F - 51.8 °F 33% 29.85 in 10.0 mi WNW 13.8 mph 17.3 mph N/A   Clear
2:12 PM 84.2 °F 82.8 °F 53.6 °F 35% 29.85 in 10.0 mi WSW 3.5 mph - N/A   Scattered Clouds
2:32 PM 82.4 °F 81.4 °F 53.6 °F 37% 29.85 in 10.0 mi WNW 13.8 mph - N/A   Mostly Cloudy
2:52 PM 82.4 °F 81.7 °F 55.4 °F 39% 29.85 in 10.0 mi West 8.1 mph 19.6 mph N/A   Mostly Cloudy
3:12 PM 86.0 °F 84.5 °F 55.4 °F 35% 29.85 in 10.0 mi West 10.4 mph 18.4 mph N/A   Scattered Clouds
3:32 PM 77.0 °F - 60.8 °F 57% 29.86 in 10.0 mi NNW 18.4 mph 32.2 mph N/A   Mostly Cloudy
3:53 PM 73.4 °F - 62.6 °F 69% 29.86 in 10.0 mi NNW 9.2 mph - N/A   Mostly Cloudy
4:13 PM 73.4 °F - 62.6 °F 69% 29.87 in 10.0 mi NW 11.5 mph - N/A   Overcast
4:33 PM 73.4 °F - 62.6 °F 69% 29.87 in 10.0 mi NW 13.8 mph - N/A   Light Drizzle
4:53 PM 73.4 °F - 60.8 °F 65% 29.87 in 10.0 mi NNW 12.7 mph - N/A Rain Light Rain
5:13 PM 75.2 °F - 62.6 °F 65% 29.87 in 10.0 mi NNW 10.4 mph - N/A   Mostly Cloudy
5:33 PM 77.0 °F - 60.8 °F 57% 29.87 in 10.0 mi NW 8.1 mph - N/A   Mostly Cloudy
5:53 PM 77.0 °F - 60.8 °F 57% 29.87 in 10.0 mi NW 10.4 mph - N/A   Mostly Cloudy
6:13 PM 75.2 °F - 62.6 °F 65% 29.86 in 10.0 mi NW 6.9 mph - N/A   Mostly Cloudy
6:33 PM 78.8 °F - 60.8 °F 54% 29.85 in 10.0 mi WNW 11.5 mph - N/A   Scattered Clouds
6:53 PM 77.0 °F - 60.8 °F 57% 29.86 in 10.0 mi WNW 6.9 mph - N/A   Mostly Cloudy
7:13 PM 78.8 °F - 60.8 °F 54% 29.86 in 10.0 mi NW 6.9 mph - N/A   Mostly Cloudy
7:33 PM 77.0 °F - 60.8 °F 57% 29.88 in 10.0 mi WNW 8.1 mph - N/A   Scattered Clouds
7:53 PM 77.0 °F - 60.8 °F 57% 29.88 in 10.0 mi WNW 6.9 mph - N/A   Mostly Cloudy
8:13 PM 77.0 °F - 62.6 °F 61% 29.88 in 10.0 mi NW 4.6 mph - N/A   Mostly Cloudy
8:34 PM 75.2 °F - 60.8 °F 61% 29.89 in 10.0 mi NW 5.8 mph - N/A   Scattered Clouds
8:54 PM 73.4 °F - 62.6 °F 69% 29.90 in 10.0 mi North 8.1 mph - N/A   Clear
9:14 PM 71.6 °F - 62.6 °F 73% 29.90 in 10.0 mi NE 12.7 mph - N/A   Clear
9:34 PM 68.0 °F - 59.0 °F 73% 29.90 in 10.0 mi NE 11.5 mph 17.3 mph N/A   Clear
9:54 PM 68.0 °F - 59.0 °F 73% 29.92 in 10.0 mi NE 10.4 mph - N/A   Clear
10:14 PM 68.0 °F - 59.0 °F 73% 29.94 in 10.0 mi NE 9.2 mph - N/A   Clear
10:29 PM 66.2 °F - 59.0 °F 78% 29.95 in 10.0 mi NE 8.1 mph - N/A   Clear
10:50 PM 64.4 °F - 59.0 °F 83% 29.96 in 10.0 mi NE 6.9 mph - N/A   Scattered Clouds
11:10 PM 64.4 °F - 57.2 °F 77% 29.96 in 10.0 mi NE 5.8 mph - N/A   Overcast
11:30 PM 64.4 °F - 55.4 °F 73% 29.97 in 10.0 mi ENE 5.8 mph - N/A   Mostly Cloudy
11:50 PM 62.6 °F - 55.4 °F 77% 29.97 in 10.0 mi ENE 4.6 mph - N/A   Scattered Clouds